Wind_Speed
30 31 33 36 39 41 43 46 48 51 55 54 54 52 51 51 55 55 55 57 58 59 67 67 64 61 55 60 57 57 55 55 52 48 47 45 43 43 41 38 34 34 32 31
30 30 33 36 39 42 44 45 48 50 54 56 58 57 54 53 53 54 55 55 56 56 59 61 63 64 64 62 61 60 60 59 57 55 49 49 46 43 41 38 36 35 32 31
27 29 31 35 38 41 43 47 51 53 53 55 60 59 56 55 58 58 58 57 54 55 57 57 59 62 65 61 60 61 60 59 59 58 55 50 48 42 37 37 39 34 32 32
27 29 31 35 39 38 44 45 51 53 55 58 57 62 59 58 63 63 62 61 61 60 57 56 57 63 61 66 66 65 63 60 58 56 53 50 46 41 41 42 39 33 32 32
23 25 28 31 32 32 39 43 45 49 54 60 61 65 62 62 64 63 65 66 66 64 63 62 57 55 64 64 73 71 67 64 62 64 67 49 48 44 43 42 42 35 32 33
20 20 24 26 29 33 40 43 42 39 38 48 49 44 63 62 64 67 69 69 72 70 67 64 62 57 53 61 66 73 67 62 61 60 47 33 42 43 45 44 46 38 34 32
8 14 18 27 35 31 32 36 40 30 28 36 30 41 49 47 45 62 75 76 74 72 72 68 65 63 57 55 61 61 61 60 58 54 34 26 33 42 45 45 44 39 33 35
17 20 24 28 34 43 32 27 37 37 34 31 26 34 27 35 42 49 59 68 73 75 73 69 68 63 60 57 56 57 56 53 49 43 33 29 28 33 41 43 41 34 31 38
24 24 26 27 36 38 37 33 32 36 39 38 27 28 33 29 36 42 48 54 67 68 72 69 65 66 63 57 53 54 50 50 46 39 33 32 30 32 42 43 38 31 33 37
23 25 22 24 33 30 30 30 29 28 32 33 28 31 32 33 29 36 38 43 50 61 64 63 65 67 61 56 47 47 49 46 42 37 34 33 35 35 40 41 37 30 36 38
20 23 24 24 29 24 19 25 25 26 30 32 34 31 28 28 32 40 33 39 40 48 51 60 65 64 58 53 52 46 44 45 40 40 31 34 35 34 35 37 33 33 38 35
19 22 20 19 24 20 17 17 20 29 31 33 36 33 28 26 29 31 41 41 41 47 53 61 65 59 50 51 50 43 45 44 39 37 36 34 33 29 30 32 30 31 30 27
17 19 21 18 17 16 17 16 22 28 30 27 35 33 27 27 31 37 43 38 36 67 45 55 52 53 49 49 46 36 39 38 40 39 37 36 33 28 28 27 29 26 24 24
18 16 20 22 21 19 16 17 22 26 30 34 31 28 25 27 25 36 30 19 40 53 34 55 53 53 46 36 31 36 32 31 38 40 39 35 33 30 28 27 23 24 21 20
17 16 20 20 26 21 17 14 16 22 33 36 30 27 28 26 26 29 14 14 56 22 33 49 42 45 38 33 38 39 38 38 38 36 35 35 34 32 29 25 24 21 20 24
20 16 18 16 22 21 16 12 16 22 19 28 34 27 28 22 24 30 18 18 25 31 41 25 49 51 42 44 42 42 45 42 35 34 36 35 33 28 26 26 21 21 23 21
21 18 18 15 22 16 17 15 11 10 12 21 29 31 25 19 20 27 16 17 34 37 37 28 44 50 48 46 40 39 38 37 35 35 36 32 32 29 29 24 25 22 18 12
18 19 20 19 21 17 20 16 12 11 15 16 16 16 18 17 20 23 25 12 35 38 39 35 45 55 53 46 40 41 36 39 38 37 36 31 30 26 24 21 17 15 11 11
19 19 22 23 18 14 15 15 17 17 16 11 9 13 14 14 11 17 8 2 30 34 34 42 50 54 49 40 42 23 40 39 38 39 35 31 28 25 21 17 16 13 11 13
21 20 22 25 26 18 21 19 21 21 20 22 19 22 21 20 12 13 7 8 35 33 40 36 43 46 43 39 37 23 48 38 47 39 32 29 26 21 19 17 15 13 13 14
20 20 23 23 29 20 21 22 22 24 25 21 31 30 27 21 14 13 17 18 32 34 34 32 39 48 42 41 36 28 48 34 37 33 31 26 22 21 19 16 14 14 14 13
19 20 19 24 24 21 25 20 21 25 28 32 35 35 36 19 17 20 20 22 26 26 30 37 41 34 30 30 45 31 39 35 32 30 27 25 24 21 16 15 14 13 13 12
20 23 23 23 27 27 27 24 26 32 28 32 40 43 35 17 21 29 27 28 28 30 32 43 38 34 26 27 23 40 35 35 29 27 27 25 20 17 15 14 12 11 10 10
18 23 26 26 18 22 25 28 28 31 39 42 45 39 24 18 24 27 33 41 32 31 44 42 38 29 23 24 31 32 38 36 30 27 25 21 19 17 15 13 10 9 9 10
18 18 20 21 20 19 25 34 35 39 44 43 33 26 22 22 29 32 37 47 38 39 36 36 42 34 25 24 23 45 37 35 30 27 23 21 18 16 13 10 8 8 8 6
15 15 15 17 22 30 33 35 39 44 36 28 26 22 22 24 26 41 41 43 48 45 33 36 48 46 38 31 34 36 35 34 29 25 21 19 16 14 11 8 7 8 6 5
Wind_Direction
257 256 254 254 256 254 250 247 245 249 251 250 250 245 245 242 241 240 238 236 235 240 231 234 233 236 232 229 239 245 248 252 251 261 267 266 267 271 277 283 290 296 304 309
262 266 265 263 260 259 257 254 251 250 252 254 253 248 244 246 247 247 247 244 240 236 238 239 235 229 237 237 238 240 243 245 251 255 260 265 268 270 275 280 285 289 298 305
268 268 268 268 268 266 264 262 260 259 253 253 252 247 245 244 246 245 244 244 243 243 239 235 234 233 229 238 243 248 248 246 251 256 257 260 265 272 276 277 276 280 290 296
273 273 271 269 267 264 263 261 263 262 261 258 257 257 246 244 246 245 245 245 241 240 241 239 234 232 234 232 237 245 252 256 258 261 258 269 266 267 269 266 271 278 287 294
280 276 271 268 269 277 277 273 268 265 262 260 260 261 253 248 248 247 247 245 245 243 238 237 235 233 233 234 233 236 245 251 257 261 264 263 262 260 262 265 273 276 285 283
298 302 310 315 313 306 297 292 289 280 269 259 257 263 254 257 255 250 245 242 242 242 242 239 238 233 232 233 232 235 243 246 250 257 266 257 257 251 256 263 266 272 276 280
324 320 308 307 312 307 295 296 290 275 259 267 267 257 264 259 261 253 246 242 241 240 239 239 238 236 231 231 230 230 235 242 246 252 254 254 254 246 247 255 258 262 266 279
321 320 319 310 305 304 284 281 269 275 265 264 264 276 278 270 263 264 257 250 241 238 239 237 238 237 237 231 237 230 232 237 244 249 252 246 257 256 251 250 252 259 262 273
313 320 319 311 307 297 285 277 270 263 266 272 272 267 281 274 260 264 264 250 245 237 234 234 234 236 236 237 235 236 237 241 241 242 245 241 246 256 256 248 252 251 260 267
317 321 321 311 313 289 280 279 274 251 266 269 267 272 287 274 263 267 258 258 247 230 228 227 225 230 231 236 234 233 236 239 243 242 242 243 242 253 259 254 244 246 253 267
313 316 326 324 316 303 292 276 263 252 256 271 278 280 310 289 274 287 261 254 254 224 206 200 216 227 227 231 236 233 231 235 236 236 243 240 244 252 253 243 242 245 255 251
307 313 332 328 313 300 294 264 248 264 266 274 280 287 290 314 300 295 276 269 245 208 182 196 211 220 213 224 232 237 232 235 230 227 239 240 241 239 240 240 238 236 235 243
307 321 326 335 312 302 286 275 259 261 267 281 284 293 285 303 315 310 298 261 247 189 183 189 198 205 208 219 221 226 223 225 227 225 234 234 236 229 224 225 225 225 233 240
300 316 324 335 324 300 280 276 265 267 269 269 286 292 282 316 323 318 298 268 193 177 186 179 193 201 204 206 216 198 212 208 211 219 225 228 227 218 219 218 218 225 232 241
303 314 322 323 335 334 315 277 275 279 272 269 280 290 280 309 321 328 354 211 177 187 162 181 191 193 205 197 197 205 213 205 209 215 219 220 216 214 210 213 217 222 233 244
296 309 318 333 340 338 337 291 274 290 286 269 275 284 295 308 307 317 352 193 192 187 180 181 184 203 178 195 203 208 205 204 209 213 215 211 210 210 211 213 216 224 235 241
297 298 304 328 331 337 328 313 299 303 300 292 283 281 287 295 315 319 337 139 179 163 169 191 196 186 196 196 203 206 194 197 203 207 205 203 204 202 211 210 216 223 228 233
281 290 293 317 323 327 324 342 338 317 301 297 307 315 283 297 304 305 318 128 166 188 186 182 189 202 207 201 198 195 192 192 194 196 195 197 201 201 212 216 223 222 223 243
286 281 297 306 310 313 309 319 320 318 325 325 324 308 307 315 297 297 298 331 169 182 193 187 193 197 205 208 206 199 180 180 190 190 188 191 197 203 205 212 215 216 227 239
278 277 289 300 300 311 314 307 304 305 319 311 309 309 308 286 269 273 240 211 179 187 198 204 204 207 206 213 217 215 180 179 189 170 183 189 194 198 200 203 209 216 227 235
279 277 291 288 290 306 308 297 297 305 304 303 308 308 291 285 264 240 211 216 197 203 204 203 205 206 203 203 205 204 173 162 152 171 180 186 191 196 197 199 208 217 225 237
292 292 289 286 284 301 300 287 291 297 298 295 301 311 305 277 245 230 228 213 218 210 209 210 193 192 200 208 192 200 140 149 162 171 177 182 187 193 191 202 209 214 232 249
289 285 278 274 293 294 290 291 293 306 286 291 294 301 291 253 227 213 214 217 212 205 202 196 187 191 193 204 165 150 154 152 159 170 174 180 183 188 194 202 203 222 243 249
285 274 292 294 293 288 293 294 298 300 304 303 299 289 270 229 212 203 201 212 210 206 190 187 192 192 192 195 161 155 144 147 160 171 173 177 182 187 190 196 210 231 240 255
287 296 292 290 288 285 305 302 293 296 295 298 277 271 245 221 208 200 188 203 205 200 196 202 200 203 200 192 195 147 149 148 163 171 174 181 179 181 186 201 225 232 251 268
315 320 327 325 300 294 302 303 298 296 301 275 273 261 241 209 207 190 192 195 197 201 205 196 193 207 200 192 147 143 154 153 163 171 177 178 175 179 191 214 221 240 241 248
Height
5708 5710 5711 5711 5710 5712 5715 5716 5717 5715 5710 5715 5719 5729 5733 5739 5741 5747 5751 5756 5761 5765 5770 5774 5784 5785 5795 5799 5800 5802 5806 5809 5812 5817 5821 5827 5827 5828 5830 5830 5830 5829 5828 5827
5700 5700 5700 5700 5699 5700 5702 5704 5704 5703 5702 5706 5705 5712 5722 5727 5730 5733 5737 5743 5748 5754 5761 5766 5766 5774 5775 5784 5788 5793 5798 5803 5805 5809 5815 5818 5819 5820 5822 5823 5824 5822 5823 5821
5692 5692 5691 5689 5688 5688 5688 5688 5686 5687 5693 5693 5689 5701 5710 5716 5714 5717 5721 5727 5732 5739 5745 5752 5756 5759 5765 5768 5774 5778 5784 5790 5795 5800 5806 5808 5810 5814 5816 5816 5817 5817 5818 5815
5683 5682 5682 5680 5678 5676 5674 5672 5670 5671 5674 5677 5678 5681 5695 5702 5697 5701 5707 5711 5716 5721 5727 5735 5744 5747 5749 5757 5762 5766 5770 5776 5781 5786 5793 5799 5802 5806 5810 5810 5810 5810 5811 5807
5675 5673 5672 5670 5668 5666 5660 5660 5660 5658 5658 5657 5666 5657 5678 5681 5684 5691 5692 5693 5697 5702 5710 5715 5724 5734 5740 5745 5750 5757 5761 5765 5772 5775 5779 5791 5792 5798 5799 5799 5800 5802 5802 5801
5667 5663 5659 5656 5656 5655 5647 5645 5645 5643 5645 5641 5650 5643 5655 5665 5670 5670 5670 5670 5673 5682 5691 5700 5709 5718 5727 5734 5738 5744 5751 5757 5762 5766 5773 5779 5783 5786 5788 5788 5788 5792 5793 5792
5660 5658 5657 5652 5648 5647 5641 5636 5632 5635 5633 5632 5636 5631 5639 5649 5642 5637 5638 5651 5659 5666 5673 5682 5690 5699 5711 5719 5726 5732 5740 5747 5753 5758 5767 5771 5772 5773 5774 5776 5778 5782 5784 5783
5652 5652 5651 5647 5639 5633 5634 5633 5629 5623 5624 5625 5628 5624 5629 5626 5619 5621 5623 5628 5639 5647 5657 5668 5677 5685 5695 5705 5714 5721 5728 5736 5743 5751 5756 5761 5762 5763 5764 5763 5768 5771 5774 5773
5646 5646 5642 5636 5631 5626 5623 5621 5620 5617 5616 5614 5622 5620 5619 5615 5612 5609 5608 5606 5613 5627 5639 5653 5663 5672 5681 5691 5702 5709 5717 5725 5732 5738 5744 5749 5752 5753 5752 5754 5758 5761 5764 5764
5642 5639 5636 5631 5624 5618 5613 5612 5610 5612 5609 5606 5608 5608 5606 5604 5602 5598 5596 5596 5597 5604 5621 5636 5645 5656 5671 5679 5691 5701 5708 5714 5722 5728 5732 5738 5741 5742 5742 5744 5747 5753 5754 5755
5636 5634 5631 5623 5616 5613 5610 5605 5603 5605 5604 5602 5599 5599 5598 5593 5592 5589 5587 5586 5586 5591 5603 5617 5629 5646 5662 5670 5677 5688 5696 5704 5712 5717 5724 5727 5730 5731 5733 5735 5740 5743 5745 5747
5631 5627 5623 5619 5612 5607 5605 5601 5601 5599 5599 5598 5595 5591 5591 5588 5584 5580 5575 5573 5573 5581 5584 5601 5616 5633 5647 5658 5668 5678 5685 5692 5699 5706 5713 5716 5719 5723 5727 5729 5732 5735 5738 5740
5626 5622 5617 5614 5609 5603 5600 5599 5595 5593 5592 5592 5587 5586 5585 5582 5577 5570 5564 5562 5562 5571 5581 5594 5608 5623 5631 5645 5656 5668 5675 5681 5690 5697 5702 5707 5712 5717 5720 5723 5726 5729 5731 5734
5619 5617 5612 5608 5602 5597 5595 5593 5590 5587 5584 5583 5582 5578 5579 5579 5573 5562 5560 5551 5553 5574 5581 5587 5602 5615 5627 5637 5650 5659 5667 5673 5680 5687 5694 5700 5706 5709 5714 5717 5721 5723 5725 5728
5615 5612 5607 5603 5596 5592 5589 5588 5586 5582 5580 5576 5576 5574 5574 5574 5567 5560 5556 5555 5559 5569 5579 5593 5602 5609 5620 5630 5639 5648 5657 5664 5671 5678 5686 5692 5698 5702 5706 5711 5715 5717 5719 5722
5608 5607 5603 5599 5592 5588 5584 5580 5577 5576 5574 5572 5570 5570 5568 5568 5565 5558 5556 5558 5567 5575 5578 5585 5594 5604 5613 5619 5626 5634 5641 5653 5663 5671 5678 5685 5691 5696 5701 5705 5707 5711 5715 5716
5602 5599 5596 5596 5589 5586 5582 5577 5575 5573 5570 5568 5566 5565 5564 5563 5565 5561 5556 5558 5565 5570 5573 5583 5589 5595 5599 5611 5622 5630 5634 5645 5656 5664 5672 5679 5685 5691 5695 5699 5703 5706 5707 5709
5596 5593 5591 5589 5585 5582 5576 5574 5572 5570 5567 5566 5564 5559 5559 5562 5560 5559 5557 5557 5561 5568 5575 5578 5581 5589 5598 5605 5610 5617 5630 5638 5649 5658 5667 5674 5680 5684 5690 5693 5696 5698 5700 5703
5590 5588 5584 5582 5580 5578 5573 5570 5567 5565 5564 5560 5560 5558 5556 5555 5556 5557 5559 5559 5558 5564 5570 5576 5582 5592 5594 5599 5606 5591 5618 5632 5645 5653 5662 5669 5675 5680 5685 5689 5691 5694 5697 5699
5584 5582 5581 5575 5571 5571 5569 5566 5562 5559 5558 5554 5553 5554 5554 5553 5553 5555 5558 5560 5561 5565 5567 5574 5582 5588 5597 5604 5604 5606 5620 5624 5637 5648 5659 5666 5672 5677 5680 5685 5688 5691 5694 5695
5578 5575 5574 5569 5564 5567 5564 5559 5556 5553 5552 5548 5546 5545 5546 5547 5549 5553 5557 5559 5559 5562 5568 5573 5579 5585 5594 5598 5606 5607 5619 5598 5631 5648 5657 5663 5669 5674 5678 5681 5685 5688 5689 5690
5572 5569 5567 5563 5559 5560 5557 5554 5552 5550 5545 5539 5538 5536 5535 5539 5540 5545 5549 5556 5556 5560 5567 5572 5578 5587 5595 5594 5598 5600 5598 5620 5635 5647 5655 5660 5666 5671 5675 5679 5682 5684 5684 5685
5566 5563 5559 5558 5555 5552 5548 5546 5544 5540 5539 5536 5528 5527 5525 5532 5534 5539 5543 5549 5554 5560 5565 5572 5581 5588 5592 5596 5588 5597 5614 5624 5636 5647 5653 5659 5664 5668 5673 5676 5678 5679 5680 5681
5559 5555 5552 5550 5551 5545 5543 5539 5535 5531 5525 5522 5518 5513 5515 5523 5526 5532 5541 5543 5551 5557 5565 5575 5582 5588 5595 5602 5591 5609 5619 5625 5638 5648 5653 5657 5662 5666 5670 5672 5673 5674 5676 5677
5553 5551 5548 5544 5542 5540 5536 5530 5526 5523 5517 5510 5506 5506 5508 5514 5519 5521 5533 5540 5549 5555 5564 5573 5581 5588 5594 5599 5598 5610 5619 5625 5637 5646 5652 5656 5659 5663 5665 5668 5669 5670 5673 5673
5548 5546 5544 5541 5538 5532 5529 5523 5516 5507 5501 5495 5493 5496 5499 5505 5511 5515 5524 5536 5546 5553 5564 5571 5579 5583 5588 5596 5601 5613 5619 5625 5636 5644 5650 5654 5657 5660 5662 5664 5665 5667 5668 5669